STARLINK-32937, 63148

Orbit data source: Space-Track

STARLINK-32937, 63148 is a payload satellite owned by SpaceX/Seattle (US) in LEO that was launched on Mon, 03 Mar 2025 UTC via an FALCON 9 launch vehicle from the Air Force Eastern Test Range (AFETR). Payload-class satellites include a variety of spacecraft equipped with specific instruments for various scientific and technological missions. These include communications satellites like Starlink; space stations such as the ISS; scientific satellites like the Hubble; Earth observation satellites from companies like Planet Labs, Umbra, and HawkEye 360; GPS; miniature CubeSats for education and research; and military/defense satellites.

Loading next visibility...
Identifier
63148, 2025-043S
Orbit
LEO
Country
Flag of USUS
Related business
Manufacturer
SpaceX/Seattle
Mission
Operational Commercial Communications
Bus & Motor
STARLINK V2M, Unknown motor
Mass
730 kg wet, ~700 kg dry
Launch date (UTC)
2025-03-03 (11 months ago)
Launch vehicle
FALCON 9
Launch site
Air Force Eastern Test Range (AFETR)
Object type
Payload
Rocket body
Debris
Shape & HBR
Box + 2 Pan, 17.7 m
Radar Cross Section
33.884 m², Large (>1 m²)

Expand to show TLE details & history
Last TLE update: 12 hours ago

TLE from 12 hours ago
0 STARLINK-32937
1 63148U 25043S   26036.91566412  .00036545  00000-0  13291-2 0  9998
2 63148  42.9929 195.6091 0000455 118.6505 241.4392 15.27625586 52504
Epoch: 2026-02-05T21:58Z
TLE epoch observation values (Epoch: 2026-02-05T21:58:33.379Z)
Latitude
-0.00006°
Longitude
89.90892°
Altitude
482.836 km
Speed
7.626 km/s
True Right ascension
13h 02m 26s
True Declination
0° 00' 00"
Sunlit
Object was in full shadow at epoch
Visualization orbit readout
Latitude
Unknown
Longitude
Unknown
Altitude
Unknown
Speed
Unknown
Apparent Right ascension
Unknown
Apparent Declination
Unknown
Sunlit
N/A
Visualization observer readout
Local Sidereal Time
11:36:35
Azimuth
Unknown
Elevation
Unknown
Doppler factor
Unknown
Orbital elements
Apogee altitude
485.171 km
Perigee altitude
484.547 km
Semi-major axis
6,862.996 km
Eccentricity
0.00005
Inclination
42.9929°
RAAN
195.6091°
Arg. of periapsis
118.6505°
True anomaly
241.43462°
Mean anomaly
241.4392°
Eccentric anomaly
241.43691°
Mean motion
3.81744 °/min
Orbital period
94.3 mins
BSTAR
0.0013291
Loading maneuver chart data...
Computing Atmospheric mass density...
Loading historical data...
Loading historical data...
Loading historical data...
Loading historical data...
Loading historical data...
Loading historical data...
Loading historical data...

Documentation

Showing up to 5 results
|